OOV-CUBE (TUBSAT-30)

Last updated on Tue Jul 01 2025 00:03:07 GMT+0000 (Coordinated Universal Time)

1 60240U 24128F 25181.59061014 .00001626 00000+0 14164-3 0 9995 2 60240 61.9959 9.3836 0053614 59.2365 301.3988 15.00354211 53317
UTC large
Height (km)
Speed (km/s)
/
Latitude / Longitude
Inclination (degrees)
Orbital Period (minutes)
Azimuth
Elevation
Range (km)
Doppler Factor

Next 0 passes for location: London (51.5072 / 0.1276)

Sorry there are no passes over London.